DELTA 1 DEB, 10707

Orbit data source: Space-Track

DELTA 1 DEB, 10707 is space debris in LEO originally from a launch on Thu, 29 Jul 1976 UTC launched from the Air Force Western Test Range (AFWTR). Debris objects in space refer to the collection of defunct objects orbiting the Earth. Examples of debris include non-operational satellites, rocket bodies, and fragments generated from explosions, collisions, or faulty payload assembly.

Loading next visibility...
Identifier
10707, 1976-077AC
Orbit
LEO
Country
Flag of USUS
Related business
Manufacturer
Unknown
Mission
Spacecraft
Bus & Motor
Unknown
Mass
Unknown
Launch date (UTC)
1976-07-29 (50 years ago)
Launch vehicle
Unknown
Launch site
Air Force Western Test Range (AFWTR)
Object type
Payload
Rocket body
Debris
Shape & HBR
Unknown shape, 0.1 m
Radar Cross Section
Medium (>0.1 m² and <1 m²)

Expand to show TLE details & history
Last TLE update: 6 hours ago

TLE from 6 hours ago
0 DELTA 1 DEB
1 10707U 76077AC  26255.95677413  .00000133  00000-0  19738-2 0  9991
2 10707 102.1949 259.7353 0262017 152.5335 238.5796 11.98524621162872
Epoch: 2026-09-12T22:57Z
TLE epoch observation values (Epoch: 2026-09-12T22:57:45.284Z)
Latitude
27.93149°
Longitude
-83.20991°
Altitude
1,804.681 km
Speed
6.933 km/s
True Right ascension
16h 52m 44s
True Declination
27° 48' 27"
Sunlit
Object was in daylight at epoch
Visualization orbit readout
Latitude
Unknown
Longitude
Unknown
Altitude
Unknown
Speed
Unknown
Apparent Right ascension
Unknown
Apparent Declination
Unknown
Sunlit
N/A
Visualization observer readout
Local Sidereal Time
21:46:11
Azimuth
Unknown
Elevation
Unknown
Doppler factor
Unknown
Orbital elements
Apogee altitude
1,896.382 km
Perigee altitude
1,473.84 km
Semi-major axis
8,063.248 km
Eccentricity
0.0262
Inclination
102.1949°
RAAN
259.7353°
Arg. of periapsis
152.5335°
True anomaly
236.06123°
Mean anomaly
238.5796°
Eccentric anomaly
237.31606°
Mean motion
2.99763 °/min
Orbital period
120.09 mins
BSTAR
0.0019738
Loading maneuver chart data...
Computing Atmospheric mass density...
Loading historical data...
Loading historical data...
Loading historical data...
Loading historical data...
Loading historical data...
Loading historical data...
Loading historical data...

Documentation

Showing up to 5 results
|